Погода в Правокумском

Россия / Ставропольский край     44°22′42″N   44°05′29″E
темп.,
°C
ветер,
м/с
пор.,
м/с
влажн.,
%
обл.,
%
осадки,
мм/ч
давл.,
гПа
погр.,
м
23 апреля, пт
пт2300:00+10зюз2393100 1.0 102392
03:00+10зсз2595100 3.3 1023235
06:00+10з2593100 1.3 1024223
09:00+14зсз566892 1.3 1024923
12:00+17сз45465 0.0 10231729
15:00+19сз45395 0.0 10222176
18:00+16с34565 0.0 102288
21:00+12св2262100 0.0 102115
24 апреля, сб
сб2400:00+11вюв3365100 0.0 102034
03:00+11вюв1265100 0.0 101914
06:00+11ююв2368100 0.0 102052
09:00+15ююз2359100 0.0 1019414
12:00+17з2252100 0.0 10191036
15:00+18ссз1153100 0.0 10191088
18:00+16ююз116473 0.0 101922
21:00+15сз1164100 0.0 102011
25 апреля, вс
вс2500:00+13с4877100 0.0 1021294
03:00+12с2683100 0.1 1021271
06:00+12с4783100 0.0 1021391
09:00+12ссв4577100 0.0 1021553
12:00+14всв4570100 0.0 10201038
15:00+15всв567076 0.1 1018837
18:00+15св587181 0.0 1016595
21:00+11св61276100 0.0 1017507
26 апреля, пн
пн2600:00+10св5972100 0.0 1016376
03:00+10ссв2574100 0.0 1015258
06:00+10св3676100 0.0 1015304
09:00+13всв226876 0.0 1015610
12:00+16с2257100 0.0 10141131
15:00+16с2364100 0.1 1014870
18:00+12ссз6982100 0.3 1014494
21:00+10ссз3795100 7.6 1017343
27 апреля, вт
вт2700:00+10ссз2494100 1.9 1017298
03:00+10ссз3494100 1.9 1017335
06:00+9с3594100 0.9 1018330
09:00+9св2391100 2.2 1019335
12:00+10всв118598 0.0 1019375
15:00+12ююв2276100 0.0 1018712
18:00+12ю2383100 0.0 1017385
21:00+10ю228999 0.0 101933